Wichita, KS

2:38 AM CDT on May 23, 2018 (GMT -0500)
Wichita Eisenhower National Airport

Weather History for KICT - September, 2013

Change the Weather History Date:

Sunday, September 1, 2013

  Actual Average Record
Temperature  
Mean Temperature 82 °F 77 °F  
Max Temperature 92 °F 88 °F 107 °F (1990)
Min Temperature 72 °F 66 °F 50 °F (1956)
Degree Days  
Heating Degree Days 0 0  
Month to date heating degree days 0 0  
Since 1 July heating degree days 1 1  
Cooling Degree Days 17 12  
Month to date cooling degree days 17 12  
Year to date cooling degree days 1430 1439  
Growing Degree Days 32 (Base 50)    
Moisture  
Dew Point 66 °F    
Average Humidity 63    
Maximum Humidity 79    
Minimum Humidity 47    
Precipitation  
Precipitation 0.01 in 0.11 in 2.72 in (1977)
Month to date precipitation 0.01 0.11  
Year to date precipitation 34.18 24.20  
Snow  
Snow 0.00 in 0.00 in 0.00 in (2007)
Month to date snowfall 0.0 0.0  
Since 1 July snowfall 0.0 0.0  
Since 1 September snowfall 0.0 0.0  
Snow Depth 0.00 in    
Sea Level Pressure  
Sea Level Pressure 29.84 in    
Wind  
Wind Speed 9 mph (North)    
Max Wind Speed 18 mph    
Max Gust Speed 23 mph    
Visibility 10 miles    
Events      
T = Trace of Precipitation, MM = Missing Value Source: NWS Daily Summary

Daily Weather History Graph

Daily Weather History Graph

Search for Another Location

Airport or City:

Astronomy

Sep. 01, 2013 Rise Set
Actual Time 7:00 AM CDT 7:58 PM CDT
Civil Twilight 6:33 AM CDT 8:25 PM CDT
Nautical Twilight 6:01 AM CDT 8:56 PM CDT
Astronomical Twilight 5:28 AM CDT 9:29 PM CDT
Moon 3:25 AM CDT (9/1) 5:34 PM CDT (9/1)
Length of Visible Light 13h 51m
Length of Day
12h 58m
Waning Crescent, 13% of the Moon is Illuminated
Sep 1
Waning Crescent
Sep 5
New
Sep 12
First Quarter
Sep 19
Full
Sep 26
Last Quarter

Hourly Weather History & Observations

Time (CDT) Temp. Heat Index Dew Point Humidity Pressure Visibility Wind Dir Wind Speed Gust Speed Precip Events Conditions
12:53 AM 79.0 °F - 66.0 °F 64% 29.75 in 10.0 mi South 5.8 mph - N/A   Partly Cloudy
1:53 AM 78.1 °F - 66.0 °F 66% 29.75 in 10.0 mi South 5.8 mph - N/A   Scattered Clouds
2:53 AM 75.9 °F - 66.9 °F 74% 29.75 in 10.0 mi South 5.8 mph - N/A   Mostly Cloudy
3:53 AM 75.0 °F - 66.9 °F 76% 29.74 in 10.0 mi South 5.8 mph - N/A   Scattered Clouds
4:53 AM 73.9 °F - 66.9 °F 79% 29.76 in 10.0 mi WSW 9.2 mph - N/A   Mostly Cloudy
5:53 AM 80.1 °F 81.9 °F 64.9 °F 60% 29.76 in 10.0 mi NW 15.0 mph - N/A   Mostly Cloudy
6:53 AM 80.1 °F 82.1 °F 66.0 °F 62% 29.77 in 10.0 mi NNW 9.2 mph - N/A   Mostly Cloudy
7:53 AM 80.1 °F 81.9 °F 64.9 °F 60% 29.81 in 10.0 mi North 6.9 mph - N/A   Overcast
8:53 AM 80.1 °F 81.9 °F 64.9 °F 60% 29.84 in 10.0 mi North 9.2 mph - N/A   Overcast
9:53 AM 80.1 °F 82.3 °F 66.9 °F 64% 29.86 in 10.0 mi North 12.7 mph - 0.01 in   Mostly Cloudy
10:53 AM 80.1 °F 82.3 °F 66.9 °F 64% 29.90 in 10.0 mi West 5.8 mph - N/A   Mostly Cloudy
11:53 AM 81.0 °F 83.3 °F 66.9 °F 62% 29.90 in 10.0 mi NNW 8.1 mph - N/A   Mostly Cloudy
12:53 PM 81.0 °F 83.3 °F 66.9 °F 62% 29.89 in 10.0 mi North 8.1 mph - N/A   Mostly Cloudy
1:53 PM 82.0 °F 84.9 °F 68.0 °F 62% 29.89 in 10.0 mi North 5.8 mph - N/A   Mostly Cloudy
2:53 PM 86.0 °F 90.1 °F 69.1 °F 57% 29.88 in 10.0 mi Variable 6.9 mph - N/A   Scattered Clouds
3:53 PM 87.1 °F 91.3 °F 69.1 °F 55% 29.87 in 10.0 mi North 4.6 mph - N/A   Scattered Clouds
4:53 PM 90.0 °F 94.5 °F 69.1 °F 50% 29.86 in 10.0 mi North 8.1 mph - N/A   Scattered Clouds
5:53 PM 91.0 °F 95.2 °F 68.0 °F 47% 29.84 in 10.0 mi NNW 13.8 mph - N/A   Scattered Clouds
6:53 PM 89.1 °F 92.9 °F 68.0 °F 50% 29.85 in 10.0 mi NNE 13.8 mph - N/A   Partly Cloudy
7:53 PM 84.9 °F 87.6 °F 66.9 °F 55% 29.86 in 10.0 mi NNE 10.4 mph - N/A   Scattered Clouds
8:53 PM 82.9 °F 85.4 °F 66.9 °F 58% 29.90 in 10.0 mi NNE 12.7 mph - N/A   Partly Cloudy
9:53 PM 80.1 °F 81.2 °F 62.1 °F 54% 29.94 in 10.0 mi NNE 15.0 mph - N/A   Partly Cloudy
10:53 PM 77.0 °F - 59.0 °F 54% 29.96 in 10.0 mi NE 10.4 mph - N/A   Clear
11:53 PM 73.9 °F - 60.1 °F 62% 29.97 in 10.0 mi NE 8.1 mph - N/A   Clear